Humidity-temperature Sensor

Selected Measurement Type: Relative Humidity

 
Relative Humidity [%]     6 entries per hour
Showing data from 3/20/2015 (00:00:00 Z) to 3/17/2015 (00:01:00 Z)
Previous Next [ Day | 3-Days | 7-Days ]
First Last
Prev [ Day | 3-Days | 7-Days ] Next
First Last

Start Time:     :
End Time:     :     
Time (in GMT) :00 :50 :40 :30 :20 :10
Previous Next [ Day | 3-Days | 7-Days ]
First Last
Prev [ Day | 3-Days | 7-Days ] Next
First Last


123 => good data
MM => data is determined as missing
-- => data not received/configured
Back to Top Back to Top
3/20/2015 00:00 to 23:10 77.33 77.73 77.75 77.48 79.35 76.61
3/19/2015 23:00 to 22:10 76.48 77.90 77.17 78.19 76.34 75.86
3/19/2015 22:00 to 21:10 76.36 76.40 76.63 76.34 78.27 75.34
3/19/2015 21:00 to 20:10 76.84 76.54 78.60 79.87 79.25 78.46
3/19/2015 20:00 to 19:10 78.12 78.73 79.08 79.16 78.91 78.37
3/19/2015 19:00 to 18:10 79.50 78.15 76.96 77.50 77.98 78.35
3/19/2015 18:00 to 17:10 79.12 78.67 79.37 78.79 77.21 77.73
3/19/2015 17:00 to 16:10 77.79 77.63 76.71 76.09 78.79 80.37
3/19/2015 16:00 to 15:10 78.91 78.44 76.42 77.25 77.19 77.98
3/19/2015 15:00 to 14:10 78.77 79.04 78.77 79.95 80.64 80.66
3/19/2015 14:00 to 13:10 79.97 79.83 79.08 79.68 79.64 78.67
3/19/2015 13:00 to 12:10 78.31 78.29 78.73 80.22 81.14 81.70
3/19/2015 12:00 to 11:10 79.95 79.85 80.72 79.39 78.23 80.06
3/19/2015 11:00 to 10:10 80.89 80.20 80.33 79.83 80.35 81.08
3/19/2015 10:00 to 9:10 80.54 82.20 81.68 80.35 80.56 79.83
3/19/2015 09:00 to 8:10 80.29 81.18 81.49 82.30 81.97 82.72
3/19/2015 08:00 to 7:10 83.13 81.97 80.74 80.43 80.18 80.49
3/19/2015 07:00 to 6:10 81.26 80.87 79.60 79.41 78.58 80.18
3/19/2015 06:00 to 5:10 80.39 78.69 78.79 78.56 78.00 78.67
3/19/2015 05:00 to 4:10 79.21 77.58 79.33 77.31 77.15 78.27
3/19/2015 04:00 to 3:10 78.21 78.27 78.29 77.96 78.81 77.54
3/19/2015 03:00 to 2:10 77.92 76.54 77.73 76.92 77.23 78.46
3/19/2015 02:00 to 1:10 -- -- -- -- -- --
3/19/2015 01:00 to 0:10 78.21 77.67 78.00 77.11 79.33 78.83
3/19/2015 00:00 to 23:10 79.73 77.75 80.06 79.27 80.79 81.39
3/18/2015 23:00 to 22:10 80.45 80.45 80.54 78.60 79.21 78.91
3/18/2015 22:00 to 21:10 79.60 79.39 80.45 80.49 80.06 78.87
3/18/2015 21:00 to 20:10 78.87 77.54 77.81 79.79 79.21 80.06
3/18/2015 20:00 to 19:10 81.62 80.56 78.12 79.75 80.18 79.85
3/18/2015 19:00 to 18:10 80.85 80.33 79.37 78.46 77.48 78.77
3/18/2015 18:00 to 17:10 79.58 78.33 78.10 78.04 76.82 76.75
3/18/2015 17:00 to 16:10 77.33 77.58 77.15 76.86 76.38 76.38
3/18/2015 16:00 to 15:10 76.54 77.58 76.71 76.09 77.40 78.77
3/18/2015 15:00 to 14:10 78.91 78.08 80.60 80.41 80.85 79.85
3/18/2015 14:00 to 13:10 81.22 80.97 80.70 80.79 82.05 81.64
3/18/2015 13:00 to 12:10 81.85 82.18 82.53 81.68 82.74 83.22
3/18/2015 12:00 to 11:10 81.66 79.62 78.94 79.85 81.49 82.41
3/18/2015 11:00 to 10:10 80.45 80.70 80.14 81.24 80.83 80.06
3/18/2015 10:00 to 9:10 79.48 78.46 79.54 80.35 79.48 79.21
3/18/2015 09:00 to 8:10 79.27 79.23 79.43 80.89 82.34 82.01
3/18/2015 08:00 to 7:10 81.28 81.14 80.20 80.37 80.89 80.66
3/18/2015 07:00 to 6:10 79.52 78.79 79.68 81.31 81.80 80.93
3/18/2015 06:00 to 5:10 80.56 80.54 78.31 76.88 75.73 78.77
3/18/2015 05:00 to 4:10 77.58 78.19 78.98 78.10 77.85 79.21
3/18/2015 04:00 to 3:10 79.46 78.96 77.96 76.13 76.25 76.13
3/18/2015 03:00 to 2:10 77.90 76.63 76.94 75.42 72.35 75.05
3/18/2015 02:00 to 1:10 74.86 74.84 74.38 74.97 75.61 74.92
3/18/2015 01:00 to 0:10 75.82 76.13 76.82 76.61 76.38 76.82
3/18/2015 00:00 to 23:10 76.46 75.78 76.17 76.00 77.44 77.69
3/17/2015 23:00 to 22:10 78.40 78.69 79.43 78.85 78.44 79.02
3/17/2015 22:00 to 21:10 80.35 81.01 80.89 80.93 81.33 80.35
3/17/2015 21:00 to 20:10 81.31 81.28 81.31 81.64 81.35 82.45
3/17/2015 20:00 to 19:10 81.62 82.07 82.07 82.20 82.30 81.70
3/17/2015 19:00 to 18:10 82.16 82.12 81.80 81.16 81.58 81.60
3/17/2015 18:00 to 17:10 81.55 81.43 81.22 80.62 80.91 80.33
3/17/2015 17:00 to 16:10 79.95 79.77 79.25 78.85 78.60 78.60
3/17/2015 16:00 to 15:10 78.04 79.00 78.89 79.33 79.43 81.24
3/17/2015 15:00 to 14:10 82.78 83.28 84.05 84.44 84.40 83.99
3/17/2015 14:00 to 13:10 84.47 84.34 84.67 84.63 84.57 84.13
3/17/2015 13:00 to 12:10 84.07 84.51 84.65 84.24 84.28 84.36
3/17/2015 12:00 to 11:10 84.26 84.01 83.59 84.15 83.51 83.43
3/17/2015 11:00 to 10:10 82.82 83.32 83.43 82.80 82.43 81.99
3/17/2015 10:00 to 9:10 82.28 81.66 81.95 80.83 80.58 81.45
3/17/2015 09:00 to 8:10 81.58 80.91 80.97 81.35 81.70 81.95
3/17/2015 08:00 to 7:10 81.76 81.64 82.78 82.66 82.78 81.68
3/17/2015 07:00 to 6:10 82.47 81.43 82.61 82.34 81.76 82.39
3/17/2015 06:00 to 5:10 81.37 82.41 82.43 82.01 80.95 81.24
3/17/2015 05:00 to 4:10 80.00 80.00 79.18 78.98 79.25 78.71
3/17/2015 04:00 to 3:10 77.88 78.06 78.25 78.71 78.77 78.50
3/17/2015 03:00 to 2:10 79.37 79.18 79.00 78.56 78.58 78.31
3/17/2015 02:00 to 1:10 78.48 78.08 77.65 77.71 77.69 76.82
3/17/2015 01:00 to 0:10 77.52 78.21 79.08 79.52 79.18 80.06